GW0353 Weather Reports


time (UTC)temp
F
wind
direction
speed
knots
gust
knots
rain 1hr
in
rain 24hr
in
rain mn
in
humidity
%
barometer
mb
20260502180557 60 108 6.1 13.9 0.00 0.00 0.00 30 1021.7
20260502170110 57 51 7.0 13.9 0.00 0.00 0.00 30 1022.2
20260502164057 57 40 7.0 13.0 0.00 0.00 0.00 31 1022.0
20260502163558 57 117 5.2 12.2 0.00 0.00 0.00 32 1022.1
20260502163104 57 48 5.2 12.2 0.00 0.00 0.00 30 1022.2
20260502162558 57 118 3.5 8.7 0.00 0.00 0.00 33 1022.0
20260502162057 56 105 3.5 7.0 0.00 0.00 0.00 37 1022.2
20260502161600 56 49 0.9 3.5 0.00 0.00 0.00 53 1022.0
20260502161057 56 111 0.0 4.3 0.00 0.00 0.00 53 1022.2
20260502160558 54 0 1.7 4.3 0.00 0.00 0.00 59 1022.1
20260502152057 48 0 0.0 0.9 0.00 0.00 0.00 72 1022.5
20260502151607 47 0 0.0 0.9 0.00 0.00 0.00 74 1022.6
20260502151100 46 58 0.0 0.0 0.00 0.00 0.00 75 1022.6
20260502150557 45 0 0.0 0.0 0.00 0.00 0.00 76 1022.5
20260502140105 40 0 0.0 0.0 0.00 0.00 0.00 80 1022.3
20260502130557 37 0 0.0 0.0 0.00 0.00 0.00 82 1022.0
20260502123558 38 0 0.0 0.9 0.00 0.00 0.00 77 1021.8
20260502123057 38 169 0.0 0.9 0.00 0.00 0.00 78 1021.8
20260502122558 38 0 0.0 0.9 0.00 0.00 0.00 77 1021.8
20260502122059 38 0 0.0 0.9 0.00 0.00 0.00 76 1021.7
20260502121559 38 0 0.0 1.7 0.00 0.00 0.00 78 1021.9
20260502121059 38 181 0.9 1.7 0.00 0.00 0.00 75 1021.8
20260502120601 38 0 0.0 1.7 0.00 0.00 0.00 75 1021.7
20260502120106 39 0 0.0 0.0 0.00 0.00 0.00 75 1021.8
20260502115558 39 0 0.0 0.0 0.00 0.00 0.00 76 1021.7
20260502115058 39 0 0.0 0.0 0.00 0.00 0.00 79 1021.8
20260502114559 39 0 0.0 0.0 0.00 0.00 0.00 78 1021.8
20260502114058 39 0 0.0 0.9 0.00 0.00 0.00 78 1021.7
20260502113558 38 0 0.0 1.7 0.00 0.00 0.00 76 1021.8
20260502113100 39 0 0.0 1.7 0.00 0.00 0.00 73 1021.9
20260502112600 40 242 0.0 1.7 0.00 0.00 0.00 73 1021.8
20260502112057 40 0 0.0 0.0 0.00 0.00 0.00 77 1021.8
20260502111558 40 0 0.0 0.0 0.00 0.00 0.00 73 1021.9
20260502111057 40 0 0.0 0.9 0.00 0.00 0.00 72 1022.0
20260502110601 41 0 0.0 1.7 0.00 0.00 0.00 75 1021.9
20260502105558 40 175 0.9 2.6 0.00 0.00 0.00 71 1021.9
20260502105058 41 0 0.0 0.9 0.00 0.00 0.00 73 1022.0
20260502104557 41 231 0.0 0.9 0.00 0.00 0.00 78 1021.8
20260502104058 41 0 0.0 0.0 0.00 0.00 0.00 75 1021.9
20260502103558 41 0 0.0 0.0 0.00 0.00 0.00 75 1022.0
20260502103101 41 0 0.0 0.0 0.00 0.00 0.00 72 1021.8
20260502102559 41 0 0.0 1.7 0.00 0.00 0.00 72 1021.9
20260502102059 41 174 0.0 1.7 0.00 0.00 0.00 71 1021.8
20260502101558 41 175 0.0 1.7 0.00 0.00 0.00 72 1021.8
20260502101059 41 169 0.9 1.7 0.00 0.00 0.00 69 1021.7
20260502100557 41 0 0.0 1.7 0.00 0.00 0.00 70 1021.7
20260502091059 44 0 0.0 1.7 0.00 0.00 0.00 66 1021.9
20260502090601 43 0 0.0 1.7 0.00 0.00 0.00 67 1021.8
20260502080108 48 0 0.0 0.9 0.00 0.00 0.00 61 1022.2
20260502071057 49 0 0.0 0.0 0.00 0.00 0.00 57 1022.4
20260502070559 49 0 0.0 0.0 0.00 0.00 0.00 58 1022.5
20260502070101 49 0 0.0 0.9 0.00 0.00 0.00 57 1022.4
20260502065558 49 0 0.0 0.9 0.00 0.00 0.00 57 1022.4
20260502065101 49 0 0.0 0.9 0.00 0.00 0.00 56 1022.4
20260502064603 50 0 0.0 0.9 0.00 0.00 0.00 54 1022.5
20260502064058 50 0 0.0 0.9 0.00 0.00 0.00 51 1022.5
20260502063558 50 0 0.0 0.0 0.00 0.00 0.00 50 1022.4
20260502063059 51 0 0.0 0.0 0.00 0.00 0.00 50 1022.4
20260502062559 51 0 0.0 0.9 0.00 0.00 0.00 51 1022.3
20260502062058 52 0 0.0 0.9 0.00 0.00 0.00 52 1022.4
20260502061558 52 0 0.0 0.9 0.00 0.00 0.00 52 1022.2
20260502061058 52 0 0.0 0.9 0.00 0.00 0.00 51 1022.1
20260502060558 52 0 0.0 2.6 0.00 0.00 0.00 51 1022.2
20260502060058 53 0 0.0 3.5 0.00 0.00 0.00 50 1022.2
20260502055558 52 65 1.7 6.1 0.00 0.00 0.00 49 1022.1
20260502055058 52 80 2.6 6.1 0.00 0.00 0.00 51 1022.2
20260502054559 52 39 2.6 5.2 0.00 0.00 0.00 51 1022.3
20260502054102 52 0 0.0 0.9 0.00 0.00 0.00 51 1022.3
20260502053559 53 4 0.0 1.7 0.00 0.00 0.00 51 1022.3
20260502053056 53 0 0.0 1.7 0.00 0.00 0.00 48 1022.3
20260502052600 53 0 0.0 1.7 0.00 0.00 0.00 49 1022.5
20260502052058 52 340 0.0 1.7 0.00 0.00 0.00 49 1022.3
20260502051556 51 0 0.0 0.9 0.00 0.00 0.00 47 1022.3
20260502051058 52 0 0.0 0.9 0.00 0.00 0.00 44 1022.2
20260502050559 52 0 0.0 0.9 0.00 0.00 0.00 42 1022.3
20260502050057 52 0 0.0 0.9 0.00 0.00 0.00 41 1022.3
20260502045558 52 0 0.0 0.9 0.00 0.00 0.00 41 1022.2
20260502045058 51 0 0.0 0.9 0.00 0.00 0.00 40 1022.2
20260502044600 51 0 0.0 0.9 0.00 0.00 0.00 39 1022.2
20260502044100 51 0 0.0 0.9 0.00 0.00 0.00 39 1022.1
20260502043558 51 0 0.0 0.9 0.00 0.00 0.00 39 1022.0
20260502043102 51 0 0.0 3.5 0.00 0.00 0.00 36 1021.9
20260502042558 51 0 0.0 3.5 0.00 0.00 0.00 37 1021.7
20260502042058 51 236 0.9 2.6 0.00 0.00 0.00 36 1021.7
20260502041556 51 222 0.0 0.9 0.00 0.00 0.00 35 1021.5
20260502041058 52 255 0.0 0.9 0.00 0.00 0.00 34 1021.4
20260502040557 53 0 0.0 0.9 0.00 0.00 0.00 32 1021.3
20260502040107 54 0 0.0 2.6 0.00 0.00 0.00 31 1021.1
20260502035558 55 0 0.0 7.8 0.00 0.00 0.00 29 1021.1
20260502035103 55 181 1.7 7.8 0.00 0.00 0.00 27 1020.9
20260502034558 55 148 3.5 7.8 0.00 0.00 0.00 28 1021.0
20260502034059 53 82 0.0 1.7 0.00 0.00 0.00 29 1020.9
20260502033558 54 0 0.0 0.9 0.00 0.00 0.00 31 1020.9
20260502033057 54 0 0.0 0.9 0.00 0.00 0.00 31 1020.8
20260502032559 55 0 0.0 3.5 0.00 0.00 0.00 29 1020.6
20260502032058 56 178 0.0 7.0 0.00 0.00 0.00 28 1020.7
20260502031619 57 52 2.6 7.0 0.00 0.00 0.00 26 1020.7
20260502031058 57 62 1.7 7.0 0.00 0.00 0.00 26 1020.6
20260502030558 57 46 0.9 5.2 0.00 0.00 0.00 27 1020.4
20260502030100 58 0 0.9 5.2 0.00 0.00 0.00 26 1020.4
20260502025557 58 52 1.7 4.3 0.00 0.00 0.00 26 1020.4
20260502025058 58 90 0.9 5.2 0.00 0.00 0.00 26 1020.4
20260502024556 58 53 0.9 6.1 0.00 0.00 0.00 25 1020.3
20260502024058 58 108 1.7 6.1 0.00 0.00 0.00 25 1020.3
20260502023558 59 91 1.7 6.1 0.00 0.00 0.00 24 1020.3
20260502023059 59 65 2.6 6.1 0.00 0.00 0.00 24 1020.3
20260502022558 59 77 0.9 6.1 0.00 0.00 0.00 24 1020.3
20260502022100 59 115 1.7 5.2 0.00 0.00 0.00 24 1020.2
20260502021559 59 133 0.9 7.8 0.00 0.00 0.00 23 1020.2
20260502021058 60 57 1.7 9.6 0.00 0.00 0.00 23 1020.2
20260502020558 60 108 3.5 9.6 0.00 0.00 0.00 23 1020.2
20260502020111 60 27 1.7 8.7 0.00 0.00 0.00 23 1020.2
20260502015602 60 124 1.7 8.7 0.00 0.00 0.00 23 1020.2
20260502015058 60 76 4.3 8.7 0.00 0.00 0.00 22 1020.2
20260502014559 60 97 4.3 7.8 0.00 0.00 0.00 22 1020.1
20260502014058 61 94 3.5 7.8 0.00 0.00 0.00 22 1020.2
20260502013559 61 166 1.7 11.3 0.00 0.00 0.00 22 1020.2
20260502013106 61 47 3.5 11.3 0.00 0.00 0.00 21 1020.2
20260502012558 61 149 3.5 10.4 0.00 0.00 0.00 22 1020.1
20260502012058 62 132 2.6 8.7 0.00 0.00 0.00 21 1020.2
20260502011559 62 104 3.5 8.7 0.00 0.00 0.00 21 1020.2
20260502011059 62 139 4.3 8.7 0.00 0.00 0.00 21 1020.2
20260502010558 62 132 2.6 10.4 0.00 0.00 0.00 21 1020.2
20260502005558 63 130 4.3 8.7 0.00 0.00 0.00 21 1020.2
20260502005059 63 132 3.5 9.6 0.00 0.00 0.00 21 1020.1
20260502004604 63 124 2.6 9.6 0.00 0.00 0.00 20 1020.1
20260502004058 63 104 4.3 8.7 0.00 0.00 0.00 20 1020.2
20260502003557 63 91 3.5 11.3 0.00 0.00 0.00 21 1020.0
20260502003132 63 109 4.3 11.3 0.00 0.00 0.00 20 1020.3
20260502002557 63 68 3.5 8.7 0.00 0.00 0.00 20 1020.3
20260502002059 63 155 4.3 9.6 0.00 0.00 0.00 20 1020.3
20260502001632 64 133 2.6 9.6 0.00 0.00 0.00 20 1020.4
20260502001101 64 70 4.3 8.7 0.00 0.00 0.00 20 1020.6
20260502000554 64 77 3.5 9.6 0.00 0.00 0.00 20 1020.6
20260502000059 64 79 3.5 9.6 0.00 0.00 0.00 21 1020.5
20260501235559 64 139 5.2 8.7 0.00 0.00 0.00 21 1020.5
20260501235058 64 89 2.6 13.9 0.00 0.00 0.00 20 1020.5
20260501234600 64 31 2.6 13.9 0.00 0.00 0.00 19 1020.6
20260501234058 64 60 3.5 10.4 0.00 0.00 0.00 19 1020.5
20260501233559 65 32 2.6 10.4 0.00 0.00 0.00 21 1020.6
20260501233058 65 50 1.7 5.2 0.00 0.00 0.00 20 1020.6
20260501232558 66 356 0.9 5.2 0.00 0.00 0.00 19 1020.4
20260501232101 65 300 2.6 5.2 0.00 0.00 0.00 21 1020.6
20260501231558 65 0 1.7 7.0 0.00 0.00 0.00 20 1020.6
20260501231058 65 55 1.7 9.6 0.00 0.00 0.00 21 1020.7
20260501230559 65 91 3.5 9.6 0.00 0.00 0.00 20 1020.8
20260501230100 65 330 1.7 6.1 0.00 0.00 0.00 20 1020.8
20260501225558 66 56 0.9 4.3 0.00 0.00 0.00 20 1020.9
20260501225057 66 0 0.9 6.1 0.00 0.00 0.00 19 1020.9
20260501224604 66 281 1.7 6.1 0.00 0.00 0.00 19 1021.1
20260501224057 66 313 1.7 4.3 0.00 0.00 0.00 19 1021.2
20260501223559 66 318 1.7 5.2 0.00 0.00 0.00 18 1021.2
20260501223109 66 347 0.9 5.2 0.00 0.00 0.00 19 1021.3
20260501222558 66 13 1.7 5.2 0.00 0.00 0.00 19 1021.3
20260501222058 66 30 2.6 5.2 0.00 0.00 0.00 18 1021.3
20260501221556 66 24 1.7 5.2 0.00 0.00 0.00 18 1021.5
20260501221058 66 24 1.7 5.2 0.00 0.00 0.00 18 1021.5
20260501220558 66 278 1.7 5.2 0.00 0.00 0.00 18 1021.6
20260501220100 66 26 0.9 5.2 0.00 0.00 0.00 19 1021.7
20260501215558 66 25 1.7 5.2 0.00 0.00 0.00 15 1021.8
20260501215058 66 305 1.7 5.2 0.00 0.00 0.00 16 1021.9
20260501214556 66 309 0.9 5.2 0.00 0.00 0.00 18 1021.9
20260501214057 66 14 1.7 5.2 0.00 0.00 0.00 18 1022.0
20260501213557 66 13 0.9 5.2 0.00 0.00 0.00 17 1022.0
20260501213115 66 257 0.9 5.2 0.00 0.00 0.00 18 1022.1
20260501212557 65 308 2.6 6.1 0.00 0.00 0.00 18 1022.1
20260501212058 65 84 1.7 6.1 0.00 0.00 0.00 19 1022.2
20260501211555 65 317 1.7 6.1 0.00 0.00 0.00 18 1022.2
20260501211101 65 11 1.7 6.1 0.00 0.00 0.00 19 1022.3
20260501210558 65 2 3.5 6.1 0.00 0.00 0.00 17 1022.3
20260501205559 66 311 0.9 4.3 0.00 0.00 0.00 16 1022.5
20260501205058 65 44 1.7 6.1 0.00 0.00 0.00 18 1022.6
20260501204559 65 305 2.6 6.1 0.00 0.00 0.00 17 1022.6
20260501204103 66 342 1.7 4.3 0.00 0.00 0.00 22 1022.6
20260501203558 65 303 0.9 4.3 0.00 0.00 0.00 21 1022.7
20260501203102 65 302 0.9 5.2 0.00 0.00 0.00 19 1022.6
20260501202558 64 329 2.6 5.2 0.00 0.00 0.00 19 1022.7
20260501202058 65 295 1.7 6.1 0.00 0.00 0.00 20 1022.7
20260501201556 64 139 1.7 6.1 0.00 0.00 0.00 21 1022.6
20260501201057 65 286 0.9 4.3 0.00 0.00 0.00 22 1022.7
20260501200557 64 91 1.7 4.3 0.00 0.00 0.00 21 1022.8
20260501200057 64 32 1.7 5.2 0.00 0.00 0.00 20 1022.8
20260501195600 64 302 1.7 5.2 0.00 0.00 0.00 20 1022.9
20260501195100 64 76 0.9 5.2 0.00 0.00 0.00 21 1022.9
20260501194600 65 68 1.7 7.0 0.00 0.00 0.00 19 1023.0
20260501194057 64 213 2.6 7.0 0.00 0.00 0.00 21 1022.9
20260501193559 64 265 0.9 5.2 0.00 0.00 0.00 22 1023.0
20260501193056 63 228 1.7 4.3 0.00 0.00 0.00 20 1023.1
20260501192558 63 322 0.9 6.1 0.00 0.00 0.00 22 1023.2
20260501192100 62 339 0.9 6.1 0.00 0.00 0.00 24 1023.2
20260501191559 63 86 1.7 5.2 0.00 0.00 0.00 23 1023.4
20260501191058 63 356 2.6 5.2 0.00 0.00 0.00 21 1023.4
20260501190556 62 360 1.7 5.2 0.00 0.00 0.00 25 1023.6
20260501190108 63 23 1.7 4.3 0.00 0.00 0.00 23 1023.7
20260501185557 62 286 1.7 4.3 0.00 0.00 0.00 23 1023.7
20260501185100 63 346 1.7 4.3 0.00 0.00 0.00 22 1023.9
20260501184556 63 53 1.7 4.3 0.00 0.00 0.00 21 1023.9
20260501184058 63 318 0.9 5.2 0.00 0.00 0.00 22 1023.9
20260501183558 62 0 0.9 5.2 0.00 0.00 0.00 23 1024.0
20260501183058 62 260 1.7 4.3 0.00 0.00 0.00 24 1024.0
20260501182559 61 264 1.7 5.2 0.00 0.00 0.00 23 1023.9
20260501182100 61 300 1.7 5.2 0.00 0.00 0.00 24 1023.9
20260501181559 61 289 1.7 5.2 0.00 0.00 0.00 24 1024.0
20260501181057 60 294 1.7 5.2 0.00 0.00 0.00 24 1024.0